Tanana, AK

8:31 PM AKDT on March 22, 2017 (GMT -0800)
Calhoun Memorial

Weather History for PATA - October, 2012

Change the Weather History Date:

Monday, October 8, 2012

  Actual Average Record
Temperature  
Mean Temperature 38 °F -  
Max Temperature 43 °F 36 °F 55 °F (1969)
Min Temperature 32 °F 25 °F 7 °F (1958)
Degree Days  
Heating Degree Days 28    
Moisture  
Dew Point 33 °F    
Average Humidity 87    
Maximum Humidity 100    
Minimum Humidity 65    
Precipitation  
Precipitation 0.11 in - - ()
Sea Level Pressure  
Sea Level Pressure 30.26 in    
Wind  
Wind Speed 2 mph (NW)    
Max Wind Speed 17 mph    
Max Gust Speed -    
Visibility 10 miles    
Events Rain    
Averages and records for this station are not official NWS values.
T = Trace of Precipitation, MM = Missing Value Source: NWS Daily Summary

Daily Weather History Graph

Daily Weather History Graph

Search for Another Location

Airport or City:

Trip Planner

Search our weather history database for the weather conditions in past years. The results will help you decide how hot, cold, wet, or windy it might be!

Date:

Astronomy

Oct. 08, 2012 Rise Set
Actual Time 8:42 AM AKDT 7:07 PM AKDT
Civil Twilight 7:52 AM AKDT 7:57 PM AKDT
Nautical Twilight 6:54 AM AKDT 8:54 PM AKDT
Astronomical Twilight 5:54 AM AKDT 9:54 PM AKDT
Moon No Moon Rise 5:22 PM AKDT (10/8)
Length of Visible Light 12h 05m
Length of Day
10h 25m
Last Quarter, 45% of the Moon is Illuminated
Oct 8
Last Quarter
Oct 15
New
Oct 21
First Quarter
Oct 29
Full
Nov 6
Last Quarter

Hourly Weather History & Observations

Time (AKDT) Temp. Windchill Dew Point Humidity Pressure Visibility Wind Dir Wind Speed Gust Speed Precip Events Conditions
12:52 AM 35.1 °F - 33.1 °F 92% 30.23 in 10.0 mi Calm Calm - 0.00 in Rain Light Rain
1:52 AM 35.1 °F - 33.1 °F 92% 30.23 in 10.0 mi Calm Calm - 0.01 in Rain Light Rain
2:35 AM 35.6 °F - 33.8 °F 93% 30.21 in 7.0 mi Calm Calm - 0.01 in Rain Light Rain
2:52 AM 35.1 °F - 34.0 °F 96% 30.23 in 7.0 mi Calm Calm - 0.02 in Rain Light Rain
3:39 AM 35.6 °F - 35.6 °F 100% 30.21 in 10.0 mi Calm Calm - 0.01 in Rain Light Rain
3:52 AM 36.0 °F - 35.1 °F 97% 30.22 in 10.0 mi Calm Calm - 0.02 in Rain Light Rain
4:42 AM 35.6 °F - 35.6 °F 100% 30.20 in 10.0 mi Calm Calm - 0.01 in Rain Light Rain
4:52 AM 36.0 °F - 35.1 °F 97% 30.21 in 10.0 mi Calm Calm - 0.01 in Rain Light Rain
5:17 AM 35.6 °F - 35.6 °F 100% 30.19 in 10.0 mi Calm Calm - 0.01 in Rain Light Rain
5:52 AM 36.0 °F - 35.1 °F 97% 30.21 in 10.0 mi Calm Calm - 0.02 in Rain Light Rain
6:52 AM 36.0 °F - 35.1 °F 97% 30.21 in 8.0 mi Calm Calm - 0.02 in Rain Light Rain
7:52 AM 36.0 °F - 35.1 °F 97% 30.20 in 10.0 mi Calm Calm - 0.01 in Rain Light Rain
8:52 AM 36.0 °F 33.3 °F 34.0 °F 93% 30.21 in 10.0 mi West 3.5 mph - 0.00 in   Overcast
9:52 AM 36.0 °F 33.3 °F 34.0 °F 93% 30.22 in 10.0 mi WNW 3.5 mph - N/A   Overcast
10:01 AM 35.6 °F - 33.8 °F 93% 30.21 in 10.0 mi Calm Calm - N/A   Overcast
10:52 AM 37.0 °F 34.5 °F 35.1 °F 93% 30.23 in 10.0 mi West 3.5 mph - N/A   Overcast
11:52 AM 37.9 °F 34.4 °F 35.1 °F 89% 30.25 in 10.0 mi WNW 4.6 mph - N/A   Overcast
12:52 PM 39.0 °F 32.3 °F 35.1 °F 86% 30.26 in 10.0 mi NW 10.4 mph - N/A   Mostly Cloudy
1:52 PM 41.0 °F 35.8 °F 35.1 °F 79% 30.28 in 10.0 mi NW 8.1 mph - N/A   Mostly Cloudy
2:52 PM 39.9 °F 33.4 °F 32.0 °F 73% 30.29 in 10.0 mi NNW 10.4 mph - N/A   Mostly Cloudy
3:52 PM 42.1 °F 36.6 °F 32.0 °F 67% 30.30 in 10.0 mi North 9.2 mph - N/A   Scattered Clouds
4:52 PM 41.0 °F 32.5 °F 30.0 °F 65% 30.30 in 10.0 mi North 17.3 mph - N/A   Scattered Clouds
5:52 PM 39.9 °F 34.5 °F 30.0 °F 68% 30.32 in 10.0 mi NNW 8.1 mph - N/A   Mostly Cloudy
6:52 PM 37.0 °F 32.4 °F 28.9 °F 73% 30.32 in 10.0 mi West 5.8 mph - N/A   Scattered Clouds
7:52 PM 33.1 °F 26.9 °F 28.0 °F 82% 30.33 in 10.0 mi NW 6.9 mph - N/A   Scattered Clouds
8:52 PM 34.0 °F 31.0 °F 28.0 °F 79% 30.35 in 10.0 mi West 3.5 mph - N/A   Scattered Clouds
9:52 PM 34.0 °F - 27.0 °F 75% 30.35 in 10.0 mi Calm Calm - N/A   Clear
10:52 PM 34.0 °F - 26.1 °F 73% 30.37 in 10.0 mi Calm Calm - N/A   Clear
11:52 PM 32.0 °F - 26.1 °F 79% 30.38 in 10.0 mi Calm Calm - N/A   Clear